{"data":{"norad_id":53589,"intl_designator":"2022-104B","name":"STARLINK-4673","alt_names":[],"object_type":"PAYLOAD","status":"ACTIVE","operator":null,"country":"US","launch_date":"2022-08-28","launch_site_code":"AFETR","launch_vehicle":null,"mission":null,"orbit_class":"UNKNOWN","rcs_meters":null,"size_class":null,"mass_kg":null,"dimensions":null,"purposes":["comms"],"wikipedia_slug":null,"has_3d_model":false,"image_url":null,"decayed_at":null,"tle_current":{"epoch":"2026-09-20T01:00:08.992800Z","epoch_age_seconds":118354,"freshness":"FRESH","line1":"1 53589U 22104B   26263.04177075  .00000746  00000+0  33225-4 0  9994","line2":"2 53589  53.1611  75.6670 0001036  88.5999 271.5122 15.34390118225507","mean_motion":15.34390118,"eccentricity":0.0001036,"inclination_deg":53.1611,"raan_deg":75.667,"arg_perigee_deg":88.5999,"mean_anomaly_deg":271.5122,"bstar":3.3225e-5,"rev_number":22550,"period_min":93.848362493169,"perigee_km":462.0238976595,"apogee_km":463.44132584305,"semimajor_km":6840.8696117513,"source":"CELESTRAK","updated_at":"2026-09-21T09:00:32.934391Z"}}}